FW8143 Weather Reports


Display with metric or nautical units.
time (UTC)temp
F
wind
direction
speed
MPH
gust
MPH
rain 1hr
in
rain 24hr
in
rain mn
in
humidity
%
barometer
mb
20211025233223 69 170 4.0 7.0 0.00 0.00 0.00 23 1023.7
20211025232723 69 221 3.0 7.0 0.00 0.00 0.00 23 1023.8
20211025232217 69 177 2.0 8.0 0.00 0.00 0.00 23 1024.0
20211025231711 69 211 4.0 10.0 0.00 0.00 0.00 23 1024.0
20211025231205 69 221 4.0 10.0 0.00 0.00 0.00 22 1024.0
20211025230659 69 230 3.0 9.0 0.00 0.00 0.00 23 1024.0
20211025230156 69 242 4.0 11.0 0.00 0.00 0.00 22 1024.0
20211025225648 69 196 5.0 11.0 0.00 0.00 0.00 22 1024.2
20211025225141 70 246 5.0 12.0 0.00 0.00 0.00 22 1024.2
20211025224635 70 165 6.0 14.0 0.00 0.00 0.00 21 1024.3
20211025224129 70 160 6.0 14.0 0.00 0.00 0.00 21 1024.3
20211025223624 70 164 6.0 12.0 0.00 0.00 0.00 21 1024.3
20211025223117 71 188 5.0 12.0 0.00 0.00 0.00 21 1024.3
20211025222609 71 189 4.0 10.0 0.00 0.00 0.00 21 1024.4
20211025222106 71 162 4.0 9.0 0.00 0.00 0.00 21 1024.4
20211025221559 71 223 4.0 9.0 0.00 0.00 0.00 21 1024.4
20211025221055 71 214 3.0 8.0 0.00 0.00 0.00 21 1024.4
20211025220547 71 243 4.0 8.0 0.00 0.00 0.00 21 1024.4
20211025220041 71 301 4.0 10.0 0.00 0.00 0.00 21 1024.5
20211025215535 71 243 4.0 10.0 0.00 0.00 0.00 22 1024.4
20211025215030 70 225 5.0 13.0 0.00 0.00 0.00 21 1024.5
20211025214523 70 151 6.0 13.0 0.00 0.00 0.00 22 1024.7
20211025214018 70 196 5.0 10.0 0.00 0.00 0.00 21 1024.7
20211025213511 70 254 5.0 10.0 0.00 0.00 0.00 21 1024.7
20211025213008 70 209 5.0 11.0 0.00 0.00 0.00 21 1024.7
20211025212459 70 197 7.0 15.0 0.00 0.00 0.00 22 1024.7
20211025211953 70 197 7.0 15.0 0.00 0.00 0.00 21 1024.8
20211025211448 70 209 5.0 12.0 0.00 0.00 0.00 22 1024.8
20211025210941 70 160 4.0 11.0 0.00 0.00 0.00 22 1024.8
20211025210435 69 220 4.0 11.0 0.00 0.00 0.00 22 1024.8
20211025205928 69 24 4.0 10.0 0.00 0.00 0.00 22 1024.8
20211025205423 69 233 3.0 10.0 0.00 0.00 0.00 22 1024.9
20211025204917 69 273 3.0 12.0 0.00 0.00 0.00 22 1024.9
20211025204412 69 233 4.0 12.0 0.00 0.00 0.00 22 1025.0
20211025203907 69 260 3.0 9.0 0.00 0.00 0.00 22 1025.2
20211025203359 69 232 2.0 8.0 0.00 0.00 0.00 23 1025.0
20211025202853 69 229 2.0 8.0 0.00 0.00 0.00 23 1025.0
20211025202347 69 217 2.0 7.0 0.00 0.00 0.00 23 1025.2
20211025201841 69 280 4.0 11.0 0.00 0.00 0.00 23 1025.3
20211025201335 69 238 4.0 11.0 0.00 0.00 0.00 23 1025.3
20211025200829 69 188 4.0 9.0 0.00 0.00 0.00 24 1025.4
20211025200323 68 242 4.0 12.0 0.00 0.00 0.00 25 1025.4
20211025195819 68 163 3.0 12.0 0.00 0.00 0.00 24 1025.4
20211025195311 67 225 3.0 7.0 0.00 0.00 0.00 26 1025.4
20211025194804 67 188 2.0 7.0 0.00 0.00 0.00 25 1025.5
20211025194258 67 222 2.0 6.0 0.00 0.00 0.00 26 1025.7
20211025193752 67 192 4.0 11.0 0.00 0.00 0.00 26 1025.8
20211025193246 67 206 5.0 11.0 0.00 0.00 0.00 26 1025.9
20211025192747 67 212 3.0 9.0 0.00 0.00 0.00 27 1025.9
20211025192245 67 244 3.0 9.0 0.00 0.00 0.00 27 1025.9
20211025191746 67 232 4.0 9.0 0.00 0.00 0.00 27 1026.0
20211025191246 67 238 4.0 9.0 0.00 0.00 0.00 27 1026.2
20211025190746 67 180 3.0 9.0 0.00 0.00 0.00 27 1026.3
20211025190247 66 217 3.0 9.0 0.00 0.00 0.00 27 1026.4
20211025185745 66 262 3.0 8.0 0.00 0.00 0.00 27 1026.4
20211025185247 66 225 3.0 8.0 0.00 0.00 0.00 28 1026.4
20211025184745 65 302 3.0 9.0 0.00 0.00 0.00 28 1026.5
20211025184245 65 349 3.0 9.0 0.00 0.00 0.00 28 1026.5
20211025183748 65 240 4.0 11.0 0.00 0.00 0.00 28 1026.7
20211025183245 65 175 4.0 11.0 0.00 0.00 0.00 28 1026.7
20211025182744 64 188 3.0 8.0 0.00 0.00 0.00 29 1026.8
20211025182244 64 223 3.0 8.0 0.00 0.00 0.00 28 1026.8
20211025181744 63 217 3.0 8.0 0.00 0.00 0.00 29 1026.8
20211025181241 63 180 4.0 7.0 0.00 0.00 0.00 29 1026.9
20211025180743 63 225 2.0 7.0 0.00 0.00 0.00 30 1026.9
20211025180239 62 347 2.0 6.0 0.00 0.00 0.00 31 1026.9
20211025175739 62 226 3.0 7.0 0.00 0.00 0.00 31 1027.1
20211025175240 62 207 3.0 7.0 0.00 0.00 0.00 31 1027.1
20211025174740 61 238 3.0 8.0 0.00 0.00 0.00 31 1027.2
20211025174239 61 279 4.0 10.0 0.00 0.00 0.00 31 1027.2
20211025173740 61 267 4.0 10.0 0.00 0.00 0.00 32 1027.2
20211025173240 60 252 4.0 9.0 0.00 0.00 0.00 33 1027.2
20211025172739 60 220 4.0 10.0 0.00 0.00 0.00 32 1027.2
20211025172240 60 208 4.0 10.0 0.00 0.00 0.00 32 1027.2
20211025171736 60 236 4.0 9.0 0.00 0.00 0.00 33 1027.3
20211025171235 59 230 4.0 9.0 0.00 0.00 0.00 34 1027.2
20211025170735 59 245 5.0 11.0 0.00 0.00 0.00 33 1027.2
20211025170235 59 233 4.0 11.0 0.00 0.00 0.00 33 1027.3
20211025165735 59 90 4.0 9.0 0.00 0.00 0.00 33 1027.2
20211025165237 58 259 4.0 9.0 0.00 0.00 0.00 34 1027.2
20211025164736 58 248 4.0 9.0 0.00 0.00 0.00 35 1027.3
20211025164235 58 215 5.0 9.0 0.00 0.00 0.00 34 1027.3
20211025163737 58 232 4.0 9.0 0.00 0.00 0.00 35 1027.3
20211025163236 57 201 4.0 7.0 0.00 0.00 0.00 35 1027.3
20211025162735 57 223 4.0 7.0 0.00 0.00 0.00 36 1027.3
20211025162237 57 217 3.0 7.0 0.00 0.00 0.00 36 1027.3
20211025161736 56 195 3.0 7.0 0.00 0.00 0.00 37 1027.3
20211025161235 56 211 2.0 5.0 0.00 0.00 0.00 37 1027.3
20211025160735 56 193 1.0 4.0 0.00 0.00 0.00 38 1027.3
20211025160236 55 257 1.0 3.0 0.00 0.00 0.00 39 1027.4
20211025155737 55 292 1.0 4.0 0.00 0.00 0.00 38 1027.4
20211025155234 55 289 1.0 4.0 0.00 0.00 0.00 39 1027.6
20211025154729 54 219 1.0 4.0 0.00 0.00 0.00 40 1027.7
20211025154223 54 284 1.0 3.0 0.00 0.00 0.00 41 1027.7
20211025153717 53 236 0.0 3.0 0.00 0.00 0.00 41 1027.8
20211025153214 53 122 1.0 3.0 0.00 0.00 0.00 43 1027.8
20211025152712 52 119 1.0 3.0 0.00 0.00 0.00 42 1027.8
20211025152211 52 118 1.0 3.0 0.00 0.00 0.00 43 1027.8
20211025151713 51 115 1.0 3.0 0.00 0.00 0.00 45 1027.8
20211025151209 51 115 1.0 4.0 0.00 0.00 0.00 46 1027.9
20211025150707 51 84 1.0 4.0 0.00 0.00 0.00 45 1027.8
20211025150208 50 80 1.0 4.0 0.00 0.00 0.00 45 1027.8
20211025145707 50 74 1.0 4.0 0.00 0.00 0.00 46 1027.8
20211025145207 49 75 2.0 4.0 0.00 0.00 0.00 46 1027.8
20211025144704 49 88 2.0 4.0 0.00 0.00 0.00 46 1027.9
20211025144203 49 80 2.0 6.0 0.00 0.00 0.00 46 1027.8
20211025143703 49 86 3.0 6.0 0.00 0.00 0.00 46 1027.8
20211025143204 48 86 4.0 7.0 0.00 0.00 0.00 46 1027.9
20211025142703 48 81 4.0 7.0 0.00 0.00 0.00 46 1027.9
20211025142203 48 70 3.0 7.0 0.00 0.00 0.00 46 1027.8
20211025141703 48 81 3.0 7.0 0.00 0.00 0.00 46 1027.8
20211025141203 48 87 4.0 8.0 0.00 0.00 0.00 45 1027.7
20211025140703 48 76 4.0 8.0 0.00 0.00 0.00 45 1027.7
20211025140202 48 80 3.0 5.0 0.00 0.00 0.00 45 1027.8
20211025135656 48 83 2.0 5.0 0.00 0.00 0.00 45 1027.7
20211025135151 48 98 1.0 4.0 0.00 0.00 0.00 45 1027.6
20211025134645 48 164 1.0 4.0 0.00 0.00 0.00 45 1027.6
20211025134139 48 164 1.0 4.0 0.00 0.00 0.00 45 1027.4
20211025133632 48 296 0.0 2.0 0.00 0.00 0.00 45 1027.4
20211025133127 47 295 1.0 2.0 0.00 0.00 0.00 45 1027.3
20211025132621 47 295 0.0 2.0 0.00 0.00 0.00 45 1027.4
20211025132114 48 295 0.0 3.0 0.00 0.00 0.00 45 1027.3
20211025131609 47 295 0.0 3.0 0.00 0.00 0.00 45 1027.3
20211025131103 47 294 0.0 3.0 0.00 0.00 0.00 45 1027.3
20211025130556 47 294 1.0 3.0 0.00 0.00 0.00 45 1027.3
20211025130050 47 330 1.0 3.0 0.00 0.00 0.00 45 1027.3
20211025125546 47 342 1.0 3.0 0.00 0.00 0.00 45 1027.3
20211025125039 47 33 2.0 5.0 0.00 0.00 0.00 45 1027.3
20211025124533 47 36 2.0 5.0 0.00 0.00 0.00 45 1027.3
20211025124027 47 27 2.0 4.0 0.00 0.00 0.00 45 1027.3
20211025123520 47 5 2.0 4.0 0.00 0.00 0.00 45 1027.4
20211025123015 47 17 3.0 5.0 0.00 0.00 0.00 45 1027.4
20211025122511 47 355 3.0 5.0 0.00 0.00 0.00 45 1027.3
20211025122004 47 16 2.0 4.0 0.00 0.00 0.00 46 1027.3
20211025121458 47 11 3.0 4.0 0.00 0.00 0.00 46 1027.4
20211025120953 47 19 3.0 5.0 0.00 0.00 0.00 46 1027.3
20211025120449 47 5 3.0 5.0 0.00 0.00 0.00 46 1027.3
20211025115940 47 14 3.0 4.0 0.00 0.00 0.00 46 1027.3
20211025115434 47 15 3.0 5.0 0.00 0.00 0.00 47 1027.3
20211025114928 47 15 4.0 5.0 0.00 0.00 0.00 47 1027.3
20211025114422 46 24 3.0 5.0 0.00 0.00 0.00 48 1027.2
20211025113917 46 23 3.0 5.0 0.00 0.00 0.00 48 1027.2
20211025113409 46 21 3.0 5.0 0.00 0.00 0.00 48 1027.2
20211025112903 46 28 3.0 6.0 0.00 0.00 0.00 48 1027.2
20211025112358 46 32 3.0 6.0 0.00 0.00 0.00 48 1027.1
20211025111852 46 28 4.0 7.0 0.00 0.00 0.00 47 1027.1
20211025111346 46 63 4.0 7.0 0.00 0.00 0.00 47 1027.1
20211025110840 46 75 4.0 6.0 0.00 0.00 0.00 47 1027.1
20211025110334 46 78 4.0 7.0 0.00 0.00 0.00 47 1026.9
20211025105828 46 76 5.0 7.0 0.00 0.00 0.00 47 1026.9
20211025105322 46 76 5.0 8.0 0.00 0.00 0.00 47 1026.8
20211025104816 46 72 5.0 8.0 0.00 0.00 0.00 46 1026.8
20211025104313 46 76 5.0 7.0 0.00 0.00 0.00 46 1026.8
20211025103805 46 75 5.0 7.0 0.00 0.00 0.00 46 1026.7
20211025103302 46 75 5.0 7.0 0.00 0.00 0.00 45 1026.8
20211025102750 46 71 4.0 7.0 0.00 0.00 0.00 45 1026.8
20211025102251 46 79 4.0 7.0 0.00 0.00 0.00 45 1026.8
20211025101752 46 86 4.0 7.0 0.00 0.00 0.00 45 1026.8
20211025101251 46 84 4.0 7.0 0.00 0.00 0.00 45 1026.8
20211025100750 46 78 4.0 7.0 0.00 0.00 0.00 45 1026.8
20211025100251 46 74 4.0 7.0 0.00 0.00 0.00 45 1026.9
20211025095749 46 82 4.0 7.0 0.00 0.00 0.00 44 1026.9
20211025095249 46 80 2.0 6.0 0.00 0.00 0.00 45 1027.1
20211025094749 46 122 2.0 3.0 0.00 0.00 0.00 45 1026.9
20211025094247 46 137 2.0 3.0 0.00 0.00 0.00 44 1027.1
20211025093744 46 137 1.0 4.0 0.00 0.00 0.00 44 1027.2
20211025093244 46 138 1.0 4.0 0.00 0.00 0.00 44 1027.2
20211025092743 46 94 1.0 4.0 0.00 0.00 0.00 44 1027.2
20211025092243 46 93 1.0 4.0 0.00 0.00 0.00 44 1027.3
20211025091742 46 136 0.0 2.0 0.00 0.00 0.00 44 1027.2
20211025091243 46 136 1.0 4.0 0.00 0.00 0.00 44 1027.2
20211025090739 47 136 1.0 4.0 0.00 0.00 0.00 44 1027.3
20211025090238 47 136 1.0 2.0 0.00 0.00 0.00 44 1027.2
20211025085737 47 138 2.0 4.0 0.00 0.00 0.00 44 1027.2
20211025085235 47 138 2.0 4.0 0.00 0.00 0.00 43 1027.3
20211025084733 47 134 2.0 4.0 0.00 0.00 0.00 43 1027.3
20211025084233 47 175 1.0 4.0 0.00 0.00 0.00 43 1027.3
20211025083733 47 206 0.0 1.0 0.00 0.00 0.00 44 1027.3
20211025083234 47 206 0.0 1.0 0.00 0.00 0.00 44 1027.2
20211025082733 47 206 0.0 1.0 0.00 0.00 0.00 43 1027.2
20211025082234 47 206 0.0 1.0 0.00 0.00 0.00 43 1027.2
20211025081733 47 206 1.0 4.0 0.00 0.00 0.00 43 1027.1
20211025081229 47 206 2.0 5.0 0.00 0.00 0.00 43 1027.1
20211025080728 47 347 3.0 5.0 0.00 0.00 0.00 43 1026.9
20211025080229 47 355 3.0 5.0 0.00 0.00 0.00 43 1026.9
20211025075728 47 331 2.0 5.0 0.00 0.00 0.00 43 1026.9
20211025075228 47 24 1.0 3.0 0.00 0.00 0.00 43 1026.8
20211025074729 47 24 1.0 3.0 0.00 0.00 0.00 43 1026.8
20211025074229 47 24 1.0 3.0 0.00 0.00 0.00 43 1026.9
20211025073729 47 24 1.0 3.0 0.00 0.00 0.00 43 1026.7
20211025073229 47 25 2.0 4.0 0.00 0.00 0.00 43 1026.7
20211025072724 47 20 2.0 4.0 0.00 0.00 0.00 43 1026.7
20211025072225 48 11 2.0 4.0 0.00 0.00 0.00 43 1026.7
20211025071724 48 11 2.0 4.0 0.00 0.00 0.00 43 1026.7
20211025071224 48 11 2.0 4.0 0.00 0.00 0.00 43 1026.5
20211025070724 48 11 3.0 6.0 0.00 0.00 0.00 42 1026.7
20211025070226 48 5 5.0 8.0 0.00 0.00 0.00 42 1026.7
20211025065725 48 5 5.0 10.0 0.00 0.00 0.00 42 1026.7
20211025065224 48 5 5.0 10.0 0.00 0.00 0.00 42 1026.7
20211025064724 49 11 3.0 9.0 0.00 0.00 0.00 42 1026.5
20211025064219 49 19 1.0 3.0 0.00 0.00 0.00 41 1026.7
20211025063713 49 15 1.0 6.0 0.00 0.00 0.00 41 1026.5
20211025063207 49 13 1.0 6.0 0.00 0.00 0.00 41 1026.5
20211025062700 49 9 2.0 7.0 0.00 0.00 0.00 41 1026.5
20211025062155 49 10 5.0 10.0 0.00 0.00 0.00 41 1026.5
20211025061648 49 0 7.0 10.0 0.00 0.00 0.00 41 1026.5
20211025061142 49 17 6.0 10.0 0.00 0.00 0.00 41 1026.4
20211025060636 49 350 6.0 10.0 0.00 0.00 0.00 40 1026.5
20211025060130 49 346 5.0 9.0 0.00 0.00 0.00 40 1026.4
20211025055624 50 355 5.0 8.0 0.00 0.00 0.00 40 1026.5
20211025055119 50 0 6.0 10.0 0.00 0.00 0.00 40 1026.4
20211025054614 50 349 6.0 10.0 0.00 0.00 0.00 40 1026.5
20211025054107 50 348 7.0 12.0 0.00 0.00 0.00 40 1026.5
20211025053601 50 355 7.0 12.0 0.00 0.00 0.00 40 1026.5
20211025053054 50 349 7.0 12.0 0.00 0.00 0.00 40 1026.5
20211025052548 50 0 7.0 10.0 0.00 0.00 0.00 39 1026.7
20211025052043 50 10 7.0 10.0 0.00 0.00 0.00 39 1026.7
20211025051537 50 355 6.0 11.0 0.00 0.00 0.00 39 1026.7
20211025051031 50 355 6.0 11.0 0.00 0.00 0.00 39 1026.7
20211025050527 50 355 6.0 10.0 0.00 0.00 0.00 39 1026.5
20211025050027 50 0 6.0 10.0 0.00 0.00 0.00 40 1026.5
20211025045527 50 355 6.0 10.0 0.00 0.00 0.00 40 1026.5
20211025045027 50 355 7.0 12.0 0.00 0.00 0.00 40 1026.5
20211025044528 50 340 7.0 12.0 0.00 0.00 0.00 40 1026.4
20211025044027 50 328 7.0 12.0 0.00 0.00 0.00 39 1026.4
20211025043527 50 342 7.0 10.0 0.00 0.00 0.00 39 1026.3
20211025043026 50 350 7.0 10.0 0.00 0.00 0.00 39 1026.3
20211025042527 51 351 6.0 9.0 0.00 0.00 0.00 39 1026.3
20211025042027 51 346 5.0 10.0 0.00 0.00 0.00 39 1026.3
20211025041526 51 347 6.0 10.0 0.00 0.00 0.00 38 1026.3
20211025041025 51 0 7.0 11.0 0.00 0.00 0.00 39 1026.3
20211025040522 51 0 8.0 11.0 0.00 0.00 0.00 39 1026.3
20211025040024 51 355 7.0 11.0 0.00 0.00 0.00 38 1026.3
20211025035523 51 355 6.0 10.0 0.00 0.00 0.00 38 1026.3
20211025035022 51 335 7.0 11.0 0.00 0.00 0.00 38 1026.3
20211025034522 51 5 8.0 11.0 0.00 0.00 0.00 38 1026.3
20211025034023 51 336 7.0 11.0 0.00 0.00 0.00 38 1026.3
20211025033519 51 347 7.0 11.0 0.00 0.00 0.00 38 1026.2
20211025033019 51 327 8.0 11.0 0.00 0.00 0.00 38 1026.0
20211025032518 51 5 7.0 11.0 0.00 0.00 0.00 38 1026.0
20211025032021 51 5 7.0 10.0 0.00 0.00 0.00 38 1025.9
20211025031519 51 344 6.0 10.0 0.00 0.00 0.00 38 1025.8
20211025031018 51 350 6.0 10.0 0.00 0.00 0.00 38 1025.7
20211025030518 52 355 6.0 10.0 0.00 0.00 0.00 38 1025.4
20211025030019 52 355 7.0 11.0 0.00 0.00 0.00 38 1025.3
20211025025519 52 5 7.0 11.0 0.00 0.00 0.00 38 1025.2
20211025025020 52 350 7.0 11.0 0.00 0.00 0.00 37 1025.2
20211025024515 52 346 6.0 10.0 0.00 0.00 0.00 37 1025.0
20211025024015 53 0 7.0 11.0 0.00 0.00 0.00 37 1025.0
20211025023516 53 0 7.0 11.0 0.00 0.00 0.00 36 1024.9
20211025023015 53 5 8.0 11.0 0.00 0.00 0.00 36 1024.8
20211025022514 53 5 8.0 11.0 0.00 0.00 0.00 36 1024.9
20211025022015 54 0 8.0 11.0 0.00 0.00 0.00 35 1024.8
20211025021516 54 339 7.0 11.0 0.00 0.00 0.00 35 1024.7
20211025021015 54 5 7.0 10.0 0.00 0.00 0.00 35 1024.7
20211025020514 55 349 7.0 10.0 0.00 0.00 0.00 34 1024.5
20211025020015 55 0 7.0 10.0 0.00 0.00 0.00 34 1024.5
20211025015514 55 344 7.0 10.0 0.00 0.00 0.00 34 1024.4
20211025015014 55 0 7.0 11.0 0.00 0.00 0.00 34 1024.3
20211025014515 56 332 6.0 11.0 0.00 0.00 0.00 34 1024.3
20211025014015 56 355 6.0 13.0 0.00 0.00 0.00 34 1024.3
20211025013516 56 327 7.0 15.0 0.00 0.00 0.00 33 1024.2
20211025013015 56 304 7.0 15.0 0.00 0.00 0.00 33 1024.0
20211025012515 56 268 7.0 16.0 0.00 0.00 0.00 33 1024.2
20211025012015 56 303 7.0 16.0 0.00 0.00 0.00 33 1024.2
20211025011515 56 336 7.0 13.0 0.00 0.00 0.00 33 1024.2
20211025011014 56 304 6.0 12.0 0.00 0.00 0.00 33 1024.2
20211025010508 56 254 5.0 11.0 0.00 0.00 0.00 33 1024.2
20211025010002 57 272 4.0 11.0 0.00 0.00 0.00 33 1024.3
20211025005501 57 313 4.0 13.0 0.00 0.00 0.00 32 1024.2
20211025005001 57 266 5.0 13.0 0.00 0.00 0.00 32 1024.2
20211025004459 57 278 6.0 14.0 0.00 0.00 0.00 33 1024.2
20211025003958 57 217 5.0 14.0 0.00 0.00 0.00 33 1024.0
20211025003459 58 286 5.0 13.0 0.00 0.00 0.00 33 1023.9
20211025002957 58 287 4.0 13.0 0.00 0.00 0.00 32 1023.9
20211025002456 58 303 3.0 11.0 0.00 0.00 0.00 32 1023.9
20211025001957 58 278 4.0 11.0 0.00 0.00 0.00 32 1023.8
20211025001455 58 288 5.0 15.0 0.00 0.00 0.00 32 1023.8
20211025001003 59 260 7.0 15.0 0.00 0.00 0.00 32 1023.7
20211025000454 59 183 8.0 24.0 0.00 0.00 0.00 32 1023.8
20211024235954 59 220 8.0 24.0 0.00 0.00 0.00 32 1023.7
20211024235454 60 208 8.0 20.0 0.00 0.00 0.00 31 1023.7
20211024234955 60 242 9.0 20.0 0.00 0.00 0.00 31 1023.7
20211024234453 60 225 9.0 20.0 0.00 0.00 0.00 31 1023.7
20211024233953 61 221 8.0 20.0 0.00 0.00 0.00 31 1023.8
20211024233452 61 263 8.0 19.0 0.00 0.00 0.00 30 1023.8